Time,TemperatureF,DewpointF,PressureIn,WindDirection,WindDirectionDegrees,WindSpeedMPH,WindSpeedGustMPH,Humidity,HourlyPrecipIn,Conditions,Clouds,dailyrainin,SoftwareType,DateUTC
2015-08-02 00:02:00,66.0,44.4,30.08,SW,234,3.1,3.1,46,0.00,,---,0.00,VWS V15.00,2015-08-02 04:02:00,
2015-08-02 00:07:00,66.0,44.4,30.08,SW,234,3.1,3.1,46,0.00,,---,0.00,VWS V15.00,2015-08-02 04:07:00,
2015-08-02 00:12:00,65.8,45.0,30.08,SW,234,2.2,3.1,47,0.00,,---,0.00,VWS V15.00,2015-08-02 04:12:00,
2015-08-02 00:17:00,65.8,45.0,30.08,SW,234,2.7,3.1,47,0.00,,---,0.00,VWS V15.00,2015-08-02 04:17:00,
2015-08-02 00:22:00,65.8,45.0,30.08,SW,234,2.7,2.7,47,0.00,,---,0.00,VWS V15.00,2015-08-02 04:22:00,
2015-08-02 00:27:00,65.8,45.0,30.08,SW,234,2.7,2.7,47,0.00,,---,0.00,VWS V15.00,2015-08-02 04:27:00,
2015-08-02 00:32:00,65.8,45.0,30.08,SW,234,2.7,2.7,47,0.00,,---,0.00,VWS V15.00,2015-08-02 04:32:00,
2015-08-02 00:37:00,65.8,45.6,30.08,SW,234,2.2,2.7,48,0.00,,---,0.00,VWS V15.00,2015-08-02 04:37:00,
2015-08-02 00:42:00,65.7,45.5,30.08,SW,234,2.7,2.7,48,0.00,,---,0.00,VWS V15.00,2015-08-02 04:42:00,
2015-08-02 00:47:00,65.7,45.5,30.08,SW,234,2.2,2.2,48,0.00,,---,0.00,VWS V15.00,2015-08-02 04:47:00,
2015-08-02 00:52:00,65.7,45.5,30.08,SW,234,0.0,2.7,48,0.00,,---,0.00,VWS V15.00,2015-08-02 04:52:00,
2015-08-02 00:57:00,65.7,45.5,30.08,SW,234,2.7,2.7,48,0.00,,---,0.00,VWS V15.00,2015-08-02 04:57:00,
2015-08-02 01:02:00,65.7,45.5,30.08,SW,234,2.7,2.7,48,0.00,,---,0.00,VWS V15.00,2015-08-02 05:02:00,
2015-08-02 01:07:00,65.7,45.5,30.08,SW,234,2.7,2.7,48,0.00,,---,0.00,VWS V15.00,2015-08-02 05:07:00,
2015-08-02 01:12:00,65.8,45.6,30.08,SW,234,2.7,2.7,48,0.00,,---,0.00,VWS V15.00,2015-08-02 05:12:00,
2015-08-02 01:17:00,65.8,45.6,30.08,SW,234,2.2,2.2,48,0.00,,---,0.00,VWS V15.00,2015-08-02 05:17:00,
2015-08-02 01:22:00,65.8,45.6,30.08,SW,234,2.2,2.2,48,0.00,,---,0.00,VWS V15.00,2015-08-02 05:22:00,
2015-08-02 01:27:00,65.7,45.5,30.08,SW,234,2.2,2.2,48,0.00,,---,0.00,VWS V15.00,2015-08-02 05:27:00,
2015-08-02 01:32:00,65.7,45.5,30.08,SW,234,3.1,3.6,48,0.00,,---,0.00,VWS V15.00,2015-08-02 05:32:00,
2015-08-02 01:37:00,65.7,45.5,30.08,SW,234,2.7,2.7,48,0.00,,---,0.00,VWS V15.00,2015-08-02 05:37:00,
2015-08-02 01:42:00,65.5,45.3,30.08,SW,234,3.6,3.6,48,0.00,,---,0.00,VWS V15.00,2015-08-02 05:42:00,
2015-08-02 01:47:00,65.5,45.3,30.08,SW,234,2.7,2.7,48,0.00,,---,0.00,VWS V15.00,2015-08-02 05:47:00,
2015-08-02 01:52:00,65.3,45.8,30.08,SW,234,3.1,3.1,49,0.00,,---,0.00,VWS V15.00,2015-08-02 05:52:00,
2015-08-02 01:57:00,65.3,45.8,30.08,SW,234,2.7,2.7,49,0.00,,---,0.00,VWS V15.00,2015-08-02 05:57:00,
2015-08-02 02:02:00,65.3,45.8,30.08,SW,234,2.7,3.1,49,0.00,,---,0.00,VWS V15.00,2015-08-02 06:02:00,
2015-08-02 02:07:00,65.1,45.6,30.08,SW,234,3.1,3.1,49,0.00,,---,0.00,VWS V15.00,2015-08-02 06:07:00,
2015-08-02 02:12:00,65.1,45.6,30.08,SW,234,2.7,2.7,49,0.00,,---,0.00,VWS V15.00,2015-08-02 06:12:00,
2015-08-02 02:17:00,65.1,45.6,30.08,SW,234,2.7,2.7,49,0.00,,---,0.00,VWS V15.00,2015-08-02 06:17:00,
2015-08-02 02:22:00,65.1,46.2,30.08,SW,234,2.2,2.7,50,0.00,,---,0.00,VWS V15.00,2015-08-02 06:22:00,
2015-08-02 02:27:00,65.1,46.2,30.08,SW,234,2.7,2.7,50,0.00,,---,0.00,VWS V15.00,2015-08-02 06:27:00,
2015-08-02 02:32:00,65.1,46.2,30.08,SW,234,3.1,3.1,50,0.00,,---,0.00,VWS V15.00,2015-08-02 06:32:00,
2015-08-02 02:37:00,65.1,46.2,30.08,SW,234,2.7,3.1,50,0.00,,---,0.00,VWS V15.00,2015-08-02 06:37:00,
2015-08-02 02:42:00,65.1,46.2,30.08,SW,234,2.7,2.7,50,0.00,,---,0.00,VWS V15.00,2015-08-02 06:42:00,
2015-08-02 02:47:00,65.1,46.9,30.08,SW,234,3.1,3.1,52,0.00,,---,0.00,VWS V15.00,2015-08-02 06:47:00,
2015-08-02 02:52:00,65.1,46.9,30.08,SW,234,2.7,2.7,52,0.00,,---,0.00,VWS V15.00,2015-08-02 06:52:00,
2015-08-02 02:57:00,65.1,46.9,30.08,SW,234,2.7,2.7,52,0.00,,---,0.00,VWS V15.00,2015-08-02 06:57:00,
2015-08-02 03:02:00,65.1,46.9,30.08,SW,234,2.2,2.2,52,0.00,,---,0.00,VWS V15.00,2015-08-02 07:02:00,
2015-08-02 03:07:00,65.1,46.9,30.08,SW,234,3.1,3.1,52,0.00,,---,0.00,VWS V15.00,2015-08-02 07:07:00,
2015-08-02 03:12:00,65.1,46.9,30.08,SW,234,2.7,3.1,52,0.00,,---,0.00,VWS V15.00,2015-08-02 07:12:00,
2015-08-02 03:17:00,65.1,46.9,30.08,SW,234,3.1,3.1,52,0.00,,---,0.00,VWS V15.00,2015-08-02 07:17:00,
2015-08-02 03:22:00,64.9,46.7,30.08,SW,234,2.7,3.1,52,0.00,,---,0.00,VWS V15.00,2015-08-02 07:22:00,
2015-08-02 03:27:00,64.9,46.7,30.08,SW,234,2.7,2.7,52,0.00,,---,0.00,VWS V15.00,2015-08-02 07:27:00,